Time,TemperatureF,DewpointF,PressureIn,WindDirection,WindDirectionDegrees,WindSpeedMPH,WindSpeedGustMPH,Humidity,HourlyPrecipIn,Conditions,Clouds,dailyrainin,SoftwareType,DateUTC
2013-05-03 00:02:00,47.3,47.0,30.29,East,96,0.0,-999.0,100,-99.99,,,0.00,weatherlink.com 1.10,2013-05-03 04:02:00,
2013-05-03 00:17:00,47.3,47.0,30.28,ENE,75,6.0,-999.0,100,-99.99,,,0.01,weatherlink.com 1.10,2013-05-03 04:17:00,
2013-05-03 00:32:00,47.1,47.0,30.28,East,79,1.0,-999.0,100,-99.99,,,0.01,weatherlink.com 1.10,2013-05-03 04:32:00,
2013-05-03 00:47:00,47.0,47.0,30.27,East,84,0.0,-999.0,100,-99.99,,,0.02,weatherlink.com 1.10,2013-05-03 04:47:00,
2013-05-03 01:02:00,47.0,47.0,30.27,ESE,107,2.0,-999.0,100,-99.99,,,0.02,weatherlink.com 1.10,2013-05-03 05:02:00,
2013-05-03 01:17:00,46.4,46.0,30.27,ESE,121,5.0,-999.0,100,-99.99,,,0.03,weatherlink.com 1.10,2013-05-03 05:17:00,
2013-05-03 01:32:00,46.3,46.0,30.26,East,83,6.0,-999.0,100,-99.99,,,0.03,weatherlink.com 1.10,2013-05-03 05:32:00,
2013-05-03 01:47:00,46.2,46.0,30.25,SE,130,4.0,-999.0,100,-99.99,,,0.04,weatherlink.com 1.10,2013-05-03 05:47:00,
2013-05-03 02:02:00,46.3,46.0,30.25,ESE,119,2.0,-999.0,100,-99.99,,,0.04,weatherlink.com 1.10,2013-05-03 06:02:00,
2013-05-03 02:17:00,46.3,46.0,30.24,East,93,0.0,-999.0,100,-99.99,,,0.04,weatherlink.com 1.10,2013-05-03 06:17:00,
2013-05-03 02:32:00,46.2,46.0,30.24,SE,142,4.0,-999.0,100,-99.99,,,0.04,weatherlink.com 1.10,2013-05-03 06:32:00,
2013-05-03 02:47:00,46.2,46.0,30.23,ESE,103,5.0,-999.0,100,-99.99,,,0.04,weatherlink.com 1.10,2013-05-03 06:47:00,
2013-05-03 03:02:00,46.1,46.0,30.22,SSE,151,0.0,-999.0,100,-99.99,,,0.04,weatherlink.com 1.10,2013-05-03 07:02:00,
2013-05-03 03:17:00,46.1,46.0,30.21,East,94,5.0,-999.0,100,-99.99,,,0.04,weatherlink.com 1.10,2013-05-03 07:17:00,
2013-05-03 03:32:00,46.1,46.0,30.22,NNE,19,0.0,-999.0,100,-99.99,,,0.04,weatherlink.com 1.10,2013-05-03 07:32:00,
2013-05-03 03:47:00,46.0,46.0,30.21,SE,133,6.0,-999.0,100,-99.99,,,0.04,weatherlink.com 1.10,2013-05-03 07:47:00,
2013-05-03 04:02:00,45.9,46.0,30.21,NNE,25,4.0,-999.0,100,-99.99,,,0.04,weatherlink.com 1.10,2013-05-03 08:02:00,
2013-05-03 04:17:00,45.6,46.0,30.21,ENE,63,5.0,-999.0,100,-99.99,,,0.04,weatherlink.com 1.10,2013-05-03 08:17:00,
2013-05-03 04:32:00,45.8,46.0,30.21,East,89,6.0,-999.0,100,-99.99,,,0.04,weatherlink.com 1.10,2013-05-03 08:32:00,
2013-05-03 04:47:00,45.9,46.0,30.21,ESE,122,6.0,-999.0,100,-99.99,,,0.04,weatherlink.com 1.10,2013-05-03 08:47:00,
2013-05-03 05:02:00,45.9,46.0,30.21,ESE,122,5.0,-999.0,100,-99.99,,,0.04,weatherlink.com 1.10,2013-05-03 09:02:00,
2013-05-03 05:17:00,45.8,46.0,30.21,ESE,104,4.0,-999.0,100,-99.99,,,0.04,weatherlink.com 1.10,2013-05-03 09:17:00,
2013-05-03 05:32:00,45.8,46.0,30.20,East,97,6.0,-999.0,100,-99.99,,,0.04,weatherlink.com 1.10,2013-05-03 09:32:00,
2013-05-03 05:47:00,45.9,46.0,30.21,ESE,117,1.0,-999.0,100,-99.99,,,0.04,weatherlink.com 1.10,2013-05-03 09:47:00,
2013-05-03 06:02:00,45.9,46.0,30.21,East,86,4.0,-999.0,100,-99.99,,,0.04,weatherlink.com 1.10,2013-05-03 10:02:00,
2013-05-03 06:17:00,46.1,46.0,30.21,East,96,4.0,-999.0,100,-99.99,,,0.05,weatherlink.com 1.10,2013-05-03 10:17:00,
2013-05-03 06:32:00,45.8,46.0,30.22,ENE,74,10.0,-999.0,100,-99.99,,,0.06,weatherlink.com 1.10,2013-05-03 10:32:00,
2013-05-03 06:47:00,45.6,46.0,30.22,East,91,4.0,-999.0,100,-99.99,,,0.07,weatherlink.com 1.10,2013-05-03 10:47:00,
2013-05-03 07:02:00,44.9,45.0,30.22,East,86,4.0,-999.0,100,-99.99,,,0.08,weatherlink.com 1.10,2013-05-03 11:02:00,
2013-05-03 07:17:00,44.4,44.0,30.22,SE,136,4.0,-999.0,100,-99.99,,,0.08,weatherlink.com 1.10,2013-05-03 11:17:00,
2013-05-03 07:32:00,44.4,44.0,30.23,ENE,57,5.0,-999.0,100,-99.99,,,0.09,weatherlink.com 1.10,2013-05-03 11:32:00,
2013-05-03 07:47:00,44.3,44.0,30.23,ESE,107,6.0,-999.0,100,-99.99,,,0.09,weatherlink.com 1.10,2013-05-03 11:47:00,
2013-05-03 08:02:00,44.1,44.0,30.24,East,86,3.0,-999.0,100,-99.99,,,0.09,weatherlink.com 1.10,2013-05-03 12:02:00,
2013-05-03 08:17:00,43.9,44.0,30.24,East,89,5.0,-999.0,100,-99.99,,,0.09,weatherlink.com 1.10,2013-05-03 12:17:00,
2013-05-03 08:32:00,43.0,43.0,30.24,ESE,109,8.0,-999.0,100,-99.99,,,0.10,weatherlink.com 1.10,2013-05-03 12:32:00,
2013-05-03 08:47:00,42.8,43.0,30.24,East,83,3.0,-999.0,100,-99.99,,,0.10,weatherlink.com 1.10,2013-05-03 12:47:00,
2013-05-03 09:02:00,42.7,43.0,30.24,ESE,114,7.0,-999.0,100,-99.99,,,0.10,weatherlink.com 1.10,2013-05-03 13:02:00,
2013-05-03 09:17:00,42.3,42.0,30.25,NE,46,7.0,-999.0,100,-99.99,,,0.10,weatherlink.com 1.10,2013-05-03 13:17:00,
2013-05-03 09:32:00,42.1,42.0,30.25,East,79,6.0,-999.0,100,-99.99,,,0.10,weatherlink.com 1.10,2013-05-03 13:32:00,
2013-05-03 09:47:00,41.8,42.0,30.24,East,92,6.0,-999.0,100,-99.99,,,0.10,weatherlink.com 1.10,2013-05-03 13:47:00,
2013-05-03 10:02:00,42.7,43.0,30.25,East,96,6.0,-999.0,100,-99.99,,,0.10,weatherlink.com 1.10,2013-05-03 14:02:00,
2013-05-03 10:17:00,42.5,43.0,30.25,ESE,104,7.0,-999.0,100,-99.99,,,0.10,weatherlink.com 1.10,2013-05-03 14:17:00,
2013-05-03 10:32:00,43.0,43.0,30.25,East,82,4.0,-999.0,100,-99.99,,,0.10,weatherlink.com 1.10,2013-05-03 14:32:00,
2013-05-03 10:47:00,43.3,43.0,30.25,East,86,5.0,-999.0,100,-99.99,,,0.10,weatherlink.com 1.10,2013-05-03 14:47:00,
2013-05-03 11:02:00,43.9,44.0,30.26,SE,129,5.0,-999.0,100,-99.99,,,0.10,weatherlink.com 1.10,2013-05-03 15:02:00,
2013-05-03 11:17:00,44.0,44.0,30.26,ENE,78,4.0,-999.0,100,-99.99,,,0.10,weatherlink.com 1.10,2013-05-03 15:17:00,
2013-05-03 11:32:00,44.1,44.0,30.26,East,94,5.0,-999.0,100,-99.99,,,0.10,weatherlink.com 1.10,2013-05-03 15:32:00,
2013-05-03 11:48:00,45.7,46.0,30.26,East,84,3.0,-999.0,100,-99.99,,,0.10,weatherlink.com 1.10,2013-05-03 15:48:00,
2013-05-03 12:02:00,46.1,46.0,30.25,SE,133,4.0,-999.0,100,-99.99,,,0.10,weatherlink.com 1.10,2013-05-03 16:02:00,
2013-05-03 12:17:00,48.0,48.0,30.25,East,91,2.0,-999.0,100,-99.99,,,0.10,weatherlink.com 1.10,2013-05-03 16:17:00,
2013-05-03 12:32:00,47.6,47.0,30.25,SE,134,7.0,-999.0,99,-99.99,,,0.10,weatherlink.com 1.10,2013-05-03 16:32:00,
2013-05-03 12:48:00,47.8,47.0,30.24,ESE,115,0.0,-999.0,98,-99.99,,,0.10,weatherlink.com 1.10,2013-05-03 16:48:00,
2013-05-03 13:02:00,48.7,46.0,30.24,SE,136,2.0,-999.0,91,-99.99,,,0.10,weatherlink.com 1.10,2013-05-03 17:02:00,
2013-05-03 13:18:00,48.5,46.0,30.23,East,100,2.0,-999.0,89,-99.99,,,0.10,weatherlink.com 1.10,2013-05-03 17:18:00,
2013-05-03 13:33:00,48.7,46.0,30.23,East,92,2.0,-999.0,89,-99.99,,,0.10,weatherlink.com 1.10,2013-05-03 17:33:00,
2013-05-03 13:48:00,48.9,46.0,30.23,East,86,1.0,-999.0,90,-99.99,,,0.10,weatherlink.com 1.10,2013-05-03 17:48:00,
2013-05-03 14:03:00,48.9,46.0,30.22,NNW,346,1.0,-999.0,90,-99.99,,,0.10,weatherlink.com 1.10,2013-05-03 18:03:00,
2013-05-03 14:18:00,48.2,46.0,30.22,East,96,11.0,-999.0,91,-99.99,,,0.10,weatherlink.com 1.10,2013-05-03 18:18:00,
2013-05-03 14:33:00,48.5,46.0,30.22,SE,131,5.0,-999.0,92,-99.99,,,0.10,weatherlink.com 1.10,2013-05-03 18:33:00,
2013-05-03 14:48:00,48.6,46.0,30.22,East,94,6.0,-999.0,92,-99.99,,,0.10,weatherlink.com 1.10,2013-05-03 18:48:00,
2013-05-03 15:03:00,48.4,46.0,30.22,ESE,102,1.0,-999.0,91,-99.99,,,0.10,weatherlink.com 1.10,2013-05-03 19:03:00,
2013-05-03 15:18:00,48.4,46.0,30.21,SE,141,6.0,-999.0,90,-99.99,,,0.10,weatherlink.com 1.10,2013-05-03 19:18:00,
2013-05-03 15:33:00,48.4,45.0,30.21,East,98,7.0,-999.0,89,-99.99,,,0.10,weatherlink.com 1.10,2013-05-03 19:33:00,
2013-05-03 15:48:00,48.5,46.0,30.21,ESE,121,2.0,-999.0,91,-99.99,,,0.10,weatherlink.com 1.10,2013-05-03 19:48:00,
2013-05-03 16:03:00,49.1,46.0,30.20,ESE,123,4.0,-999.0,89,-99.99,,,0.10,weatherlink.com 1.10,2013-05-03 20:03:00,
2013-05-03 16:18:00,50.0,46.0,30.20,East,95,4.0,-999.0,87,-99.99,,,0.10,weatherlink.com 1.10,2013-05-03 20:18:00,
2013-05-03 16:33:00,50.1,46.0,30.20,ESE,118,6.0,-999.0,85,-99.99,,,0.10,weatherlink.com 1.10,2013-05-03 20:33:00,
2013-05-03 16:48:00,50.9,47.0,30.20,East,95,14.0,-999.0,85,-99.99,,,0.10,weatherlink.com 1.10,2013-05-03 20:48:00,
2013-05-03 17:03:00,51.0,45.0,30.20,East,91,5.0,-999.0,81,-99.99,,,0.10,weatherlink.com 1.10,2013-05-03 21:03:00,
2013-05-03 17:18:00,50.6,45.0,30.19,East,93,7.0,-999.0,81,-99.99,,,0.10,weatherlink.com 1.10,2013-05-03 21:18:00,
2013-05-03 17:33:00,50.0,45.0,30.19,SE,128,6.0,-999.0,82,-99.99,,,0.10,weatherlink.com 1.10,2013-05-03 21:33:00,
2013-05-03 17:48:00,49.8,45.0,30.19,East,97,2.0,-999.0,83,-99.99,,,0.10,weatherlink.com 1.10,2013-05-03 21:48:00,
2013-05-03 18:03:00,49.8,45.0,30.19,East,95,9.0,-999.0,83,-99.99,,,0.10,weatherlink.com 1.10,2013-05-03 22:03:00,
2013-05-03 18:18:00,49.9,44.0,30.19,East,101,15.0,-999.0,81,-99.99,,,0.10,weatherlink.com 1.10,2013-05-03 22:18:00,
2013-05-03 18:33:00,49.7,44.0,30.18,East,95,9.0,-999.0,82,-99.99,,,0.10,weatherlink.com 1.10,2013-05-03 22:33:00,
2013-05-03 18:48:00,49.8,45.0,30.18,ESE,103,4.0,-999.0,82,-99.99,,,0.10,weatherlink.com 1.10,2013-05-03 22:48:00,
2013-05-03 19:03:00,50.4,45.0,30.18,East,94,2.0,-999.0,82,-99.99,,,0.10,weatherlink.com 1.10,2013-05-03 23:03:00,
2013-05-03 19:18:00,49.9,45.0,30.18,ESE,106,4.0,-999.0,83,-99.99,,,0.10,weatherlink.com 1.10,2013-05-03 23:18:00,
2013-05-03 19:33:00,49.2,45.0,30.18,SE,126,5.0,-999.0,84,-99.99,,,0.10,weatherlink.com 1.10,2013-05-03 23:33:00,
2013-05-03 19:48:00,48.8,45.0,30.18,East,90,6.0,-999.0,85,-99.99,,,0.10,weatherlink.com 1.10,2013-05-03 23:48:00,
2013-05-03 20:03:00,48.6,45.0,30.18,ESE,105,2.0,-999.0,86,-99.99,,,0.10,weatherlink.com 1.10,2013-05-04 00:03:00,
2013-05-03 20:18:00,48.3,45.0,30.18,SSE,160,4.0,-999.0,87,-99.99,,,0.10,weatherlink.com 1.10,2013-05-04 00:18:00,
2013-05-03 20:33:00,48.1,45.0,30.18,ESE,103,5.0,-999.0,88,-99.99,,,0.10,weatherlink.com 1.10,2013-05-04 00:33:00,
2013-05-03 20:48:00,48.0,45.0,30.18,ESE,107,1.0,-999.0,89,-99.99,,,0.10,weatherlink.com 1.10,2013-05-04 00:48:00,
2013-05-03 21:03:00,47.9,45.0,30.18,East,90,5.0,-999.0,90,-99.99,,,0.10,weatherlink.com 1.10,2013-05-04 01:03:00,
2013-05-03 21:18:00,47.7,45.0,30.17,East,82,2.0,-999.0,91,-99.99,,,0.10,weatherlink.com 1.10,2013-05-04 01:18:00,
2013-05-03 21:33:00,47.7,46.0,30.18,East,88,3.0,-999.0,92,-99.99,,,0.10,weatherlink.com 1.10,2013-05-04 01:33:00,
2013-05-03 21:48:00,47.5,46.0,30.17,WNW,295,4.0,-999.0,93,-99.99,,,0.10,weatherlink.com 1.10,2013-05-04 01:48:00,
2013-05-03 22:03:00,47.4,46.0,30.18,East,96,5.0,-999.0,93,-99.99,,,0.10,weatherlink.com 1.10,2013-05-04 02:03:00,
2013-05-03 22:18:00,47.3,46.0,30.18,ESE,113,4.0,-999.0,94,-99.99,,,0.10,weatherlink.com 1.10,2013-05-04 02:18:00,
2013-05-03 22:33:00,47.2,46.0,30.17,East,101,18.0,-999.0,94,-99.99,,,0.10,weatherlink.com 1.10,2013-05-04 02:33:00,
2013-05-03 22:48:00,47.0,46.0,30.16,North,5,4.0,-999.0,95,-99.99,,,0.10,weatherlink.com 1.10,2013-05-04 02:48:00,
2013-05-03 23:03:00,46.8,45.0,30.16,ENE,67,3.0,-999.0,94,-99.99,,,0.10,weatherlink.com 1.10,2013-05-04 03:03:00,
2013-05-03 23:18:00,46.5,45.0,30.16,East,93,4.0,-999.0,93,-99.99,,,0.10,weatherlink.com 1.10,2013-05-04 03:18:00,
2013-05-03 23:33:00,46.2,44.0,30.16,NNW,345,3.0,-999.0,91,-99.99,,,0.10,weatherlink.com 1.10,2013-05-04 03:33:00,
2013-05-03 23:48:00,45.9,43.0,30.15,East,80,8.0,-999.0,88,-99.99,,,0.10,weatherlink.com 1.10,2013-05-04 03:48:00,